Preview of NWS' New Version of Forecast
This preview is not operational and should not be used for support decisions.

Regional Weather Roundup (RWR)

Issued by National Weather Service (NWS)

                            
000
ASPQ40 PGUM 200010
RWRPQ 
WEATHER ROUNDUP FOR THE MARIANAS AND MICRONESIA
NATIONAL WEATHER SERVICE TIYAN GU
1000 AM CHST TUE AUG 20 2019

GUZ001>004-200100-
MARIANA ISLANDS-
  
CITY           SKY/WX    TMP DP  RH WIND       PRES   REMARKS
GUAM AIRPORT   MOSUNNY   84  75  74 S7        29.85S HX  92           
ANDERSEN AFB   PTSUNNY   86  75  70 S7        29.86S HX  95           
ROTA AIRPORT   MOSUNNY   82  73  74 S12       29.82S                  
TINIAN AP      MOSUNNY   86  77  74 S14       29.82S HX  97           
SAIPAN AP      SUNNY     88  75  66 S14       29.84S HX  97           

$$

PMZ161-200100-
REPUBLIC OF PALAU-
  
CITY           SKY/WX    TMP DP  RH WIND       PRES   REMARKS
KOROR AP       PTSUNNY   84  75  74 SW10      29.82R HX  92           
KOROR WSO      NOT AVBL                                               

$$

PMZ171>174-200100-
FEDERATED STATES OF MICRONESIA-
  
CITY           SKY/WX    TMP DP  RH WIND       PRES   REMARKS
YAP AIRPORT    CLOUDY    84  75  74 SW12      29.79S HX  92           
CHUUK AP       PTSUNNY   84  79  84 VRB7      29.82F HX  96           
POHNPEI AP     CLOUDY    88  79  74 NW6       29.77F HX 102           
POHNPEI WSO    PTSUNNY   88  81  79 W3        29.82F HX 105           
KOSRAE AP      PTSUNNY   90  77  66 NW6       29.78F HX 102           

$$

PMZ181-200100-
REPUBLIC OF THE MARSHALL ISLANDS-
  
CITY           SKY/WX    TMP DP  RH WIND       PRES   REMARKS
KWAJALEIN AP   SUNNY     86  77  74 E5        29.80S HX  97           
MAJURO AP      PTSUNNY   86  79  79 SE9       29.81F HX  99           
MAJURO WSO     PTSUNNY   84  77  79 S3        29.80S HX  94           

$$